Weather History for Columbia Airport, CA

Change the Weather History Date:

Wednesday, October 16, 2013

  Actual Average (KMOD) Record (KMOD)
Temperature  
Mean Temperature 59 °F -  
Max Temperature 77 °F 79 °F 96 °F (1961)
Min Temperature 41 °F 53 °F 40 °F (1981)
Degree Days  
Heating Degree Days 6 1  
Month to date heating degree days 13  
Since 1 July heating degree days 16  
Cooling Degree Days 0 2  
Month to date cooling degree days 67  
Year to date cooling degree days 1679  
Growing Degree Days 9 (Base 50)    
Moisture  
Dew Point 31 °F    
Average Humidity 41    
Maximum Humidity 70    
Minimum Humidity 17    
Precipitation  
Precipitation 0.00 in 0.02 in 1.13 in (1984)
Month to date precipitation 0.26  
Year to date precipitation 9.29  
Since 1 July precipitation 0.54  
Snow  
Snow 0.00 in - 0.00 in (2002)
Month to date snowfall  
Since 1 July snowfall  
Since 1 September snowfall  
Snow Depth -    
Sea Level Pressure  
Sea Level Pressure 30.10 in    
Wind  
Wind Speed 1 mph (SSW)    
Max Wind Speed 10 mph    
Max Gust Speed -    
Visibility 10 miles    
Events      
T = Trace of Precipitation, MM = Missing Value Source: NWS Daily Summary

Daily Weather History Graph

Daily Weather History Graph

Search for Another Location

Airport:

Trip Planner

Search our weather history database for the weather conditions in past years. The results will help you decide how hot, cold, wet, or windy it might be!

Date:

Astronomy

Oct. 16, 2013 Rise Set
Actual Time 7:11 AM PDT 6:22 PM PDT
Civil Twilight 6:44 AM PDT 6:48 PM PDT
Nautical Twilight 6:14 AM PDT 7:19 PM PDT
Astronomical Twilight 5:43 AM PDT 7:49 PM PDT
Moon 5:03 PM PDT (10/16) 4:46 AM PDT (10/16)
Length of Visible Light 12h 03m
Length of Day
11h 10m
Waxing Gibbous, 94% of the Moon is Illuminated
Oct 16
Waxing Gibbous
Oct 18
Full
Oct 26
Last Quarter
Nov 3
New
Nov 9
First Quarter

Hourly Weather History & Observations

Time (PDT) Temp. Dew Point Humidity Pressure Visibility Wind Dir Wind Speed Gust Speed Precip Events Conditions
12:15 AM 44.6 °F 32.0 °F 61% 30.06 in 10.0 mi Calm Calm - N/A   Clear
12:35 AM 44.6 °F 32.0 °F 61% 30.06 in 10.0 mi Calm Calm - N/A   Clear
12:55 AM 44.6 °F 32.0 °F 61% 30.06 in 10.0 mi Calm Calm - N/A   Clear
1:15 AM 44.6 °F 32.0 °F 61% 30.07 in 10.0 mi Calm Calm - N/A   Clear
1:35 AM 44.6 °F 32.0 °F 61% 30.07 in 10.0 mi Calm Calm - N/A   Clear
1:55 AM 44.6 °F 32.0 °F 61% 30.07 in 10.0 mi Calm Calm - N/A   Clear
2:15 AM 44.6 °F 32.0 °F 61% 30.07 in 10.0 mi Calm Calm - N/A   Clear
2:35 AM 44.6 °F 32.0 °F 61% 30.08 in 10.0 mi Calm Calm - N/A   Clear
2:55 AM 44.6 °F 32.0 °F 61% 30.08 in 10.0 mi Calm Calm - N/A   Clear
3:15 AM 44.6 °F 33.8 °F 66% 30.08 in 10.0 mi Calm Calm - N/A   Clear
3:35 AM 44.6 °F 33.8 °F 66% 30.08 in 10.0 mi Calm Calm - N/A   Clear
3:55 AM 44.6 °F 33.8 °F 66% 30.08 in 10.0 mi Calm Calm - N/A   Clear
4:15 AM 44.6 °F 33.8 °F 66% 30.08 in 10.0 mi Calm Calm - N/A   Clear
4:35 AM 44.6 °F 32.0 °F 61% 30.08 in 10.0 mi Calm Calm - N/A   Clear
4:55 AM 44.6 °F 32.0 °F 61% 30.09 in 10.0 mi Calm Calm - N/A   Clear
5:15 AM 44.6 °F 32.0 °F 61% 30.09 in 10.0 mi Calm Calm - N/A   Clear
5:35 AM 44.6 °F 32.0 °F 61% 30.09 in 10.0 mi Calm Calm - N/A   Clear
5:55 AM 42.8 °F 32.0 °F 66% 30.10 in 10.0 mi Calm Calm - N/A   Clear
6:15 AM 42.8 °F 32.0 °F 66% 30.10 in 10.0 mi Calm Calm - N/A   Partly Cloudy
6:35 AM 42.8 °F 32.0 °F 66% 30.11 in 10.0 mi Calm Calm - N/A   Clear
6:55 AM 42.8 °F 32.0 °F 66% 30.11 in 10.0 mi Calm Calm - N/A   Clear
7:15 AM 41.0 °F 32.0 °F 70% 30.12 in 10.0 mi Calm Calm - N/A   Clear
7:35 AM 42.8 °F 32.0 °F 66% 30.12 in 10.0 mi Calm Calm - N/A   Clear
7:55 AM 44.6 °F 32.0 °F 61% 30.13 in 10.0 mi Calm Calm - N/A   Clear
8:15 AM 48.2 °F 33.8 °F 58% 30.13 in 10.0 mi Calm Calm - N/A   Clear
8:35 AM 53.6 °F 35.6 °F 51% 30.14 in 10.0 mi Calm Calm - N/A   Clear
8:55 AM 57.2 °F 35.6 °F 44% 30.14 in 10.0 mi Calm Calm - N/A   Clear
9:15 AM 62.6 °F 35.6 °F 37% 30.14 in 10.0 mi Calm Calm - N/A   Clear
9:35 AM 66.2 °F 28.4 °F 24% 30.15 in 10.0 mi Calm Calm - N/A   Clear
9:55 AM 68.0 °F 28.4 °F 23% 30.15 in 10.0 mi South 3.5 mph - N/A   Clear
10:15 AM 69.8 °F 28.4 °F 21% 30.14 in 10.0 mi SSE 3.5 mph - N/A   Clear
10:35 AM 71.6 °F 24.8 °F 17% 30.15 in 10.0 mi South 5.8 mph - N/A   Clear
10:55 AM 73.4 °F 26.6 °F 18% 30.15 in 10.0 mi South 4.6 mph - N/A   Clear
11:15 AM 73.4 °F 26.6 °F 18% 30.15 in 10.0 mi SSW 5.8 mph - N/A   Clear
11:35 AM 73.4 °F 28.4 °F 19% 30.14 in 10.0 mi SSW 4.6 mph - N/A   Clear
11:55 AM 75.2 °F 28.4 °F 18% 30.14 in 10.0 mi SSW 5.8 mph - N/A   Clear
12:15 PM 75.2 °F 28.4 °F 18% 30.14 in 10.0 mi SSW 8.1 mph - N/A   Clear
12:35 PM 75.2 °F 28.4 °F 18% 30.13 in 10.0 mi SSW 6.9 mph - N/A   Clear
12:55 PM 75.2 °F 28.4 °F 18% 30.12 in 10.0 mi South 10.4 mph - N/A   Clear
1:15 PM 75.2 °F 32.0 °F 21% 30.12 in 10.0 mi South 4.6 mph - N/A   Clear
1:35 PM 75.2 °F 30.2 °F 19% 30.11 in 10.0 mi SW 5.8 mph - N/A   Clear
1:55 PM 75.2 °F 28.4 °F 18% 30.11 in 10.0 mi South 6.9 mph - N/A   Clear
2:15 PM 77.0 °F 28.4 °F 17% 30.10 in 10.0 mi South 6.9 mph - N/A   Clear
2:35 PM 77.0 °F 28.4 °F 17% 30.10 in 10.0 mi WSW 6.9 mph - N/A   Clear
2:55 PM 75.2 °F 28.4 °F 18% 30.10 in 10.0 mi WSW 5.8 mph - N/A   Clear
3:15 PM 77.0 °F 28.4 °F 17% 30.10 in 10.0 mi West 5.8 mph - N/A   Clear
3:35 PM 75.2 °F 28.4 °F 18% 30.10 in 10.0 mi West 5.8 mph - N/A   Clear
3:55 PM 75.2 °F 28.4 °F 18% 30.10 in 10.0 mi SW 5.8 mph - N/A   Clear
4:15 PM 75.2 °F 28.4 °F 18% 30.09 in 10.0 mi WSW 6.9 mph - N/A   Clear
4:35 PM 75.2 °F 28.4 °F 18% 30.09 in 10.0 mi Calm Calm - N/A   Clear
4:55 PM 73.4 °F 28.4 °F 19% 30.10 in 10.0 mi WSW 4.6 mph - N/A   Clear
5:15 PM 73.4 °F 26.6 °F 18% 30.09 in 10.0 mi SW 3.5 mph - N/A   Clear
5:35 PM 73.4 °F 26.6 °F 18% 30.09 in 10.0 mi SW 3.5 mph - N/A   Clear
5:55 PM 71.6 °F 28.4 °F 20% 30.09 in 10.0 mi Calm Calm - N/A   Clear
6:15 PM 66.2 °F 28.4 °F 24% 30.09 in 10.0 mi Calm Calm - N/A   Clear
6:35 PM 62.6 °F 30.2 °F 30% 30.09 in 10.0 mi Calm Calm - N/A   Clear
6:55 PM 60.8 °F 32.0 °F 34% 30.09 in 10.0 mi Calm Calm - N/A   Clear
7:15 PM 59.0 °F 32.0 °F 36% 30.09 in 10.0 mi Calm Calm - N/A   Clear
7:35 PM 57.2 °F 32.0 °F 38% 30.09 in 10.0 mi Calm Calm - N/A   Clear
7:55 PM 57.2 °F 32.0 °F 38% 30.09 in 10.0 mi Calm Calm - N/A   Clear
8:15 PM 55.4 °F 32.0 °F 41% 30.09 in 10.0 mi Calm Calm - N/A   Clear
8:35 PM 53.6 °F 32.0 °F 44% 30.09 in 10.0 mi Calm Calm - N/A   Clear
8:55 PM 55.4 °F 32.0 °F 41% 30.09 in 10.0 mi Calm Calm - N/A   Clear
9:15 PM 53.6 °F 32.0 °F 44% 30.09 in 10.0 mi Calm Calm - N/A   Clear
9:35 PM 53.6 °F 32.0 °F 44% 30.10 in 10.0 mi Calm Calm - N/A   Clear
9:55 PM 50.0 °F 32.0 °F 50% 30.10 in 10.0 mi Calm Calm - N/A   Clear
10:15 PM 50.0 °F 32.0 °F 50% 30.10 in 10.0 mi Calm Calm - N/A   Clear
10:35 PM 50.0 °F 32.0 °F 50% 30.09 in 10.0 mi Calm Calm - N/A   Clear
10:55 PM 48.2 °F 32.0 °F 54% 30.10 in 10.0 mi Calm Calm - N/A   Clear
11:15 PM 48.2 °F 32.0 °F 54% 30.09 in 10.0 mi Calm Calm - N/A   Clear
11:35 PM 48.2 °F 32.0 °F 54% 30.09 in 10.0 mi Calm Calm - N/A   Clear
11:55 PM 48.2 °F 32.0 °F 54% 30.09 in 10.0 mi Calm Calm - N/A   Clear